User: anonymous   Login
Location: Deer Lodge Site
(39.6809°N, 119.9392°W)
Time: 16:05:49
(UTC-08:00)
Language:

CZ-4C R/B - Orbit

View from above orbital plane
View from above orbital plane
View from above satellite
View from above satellite

Ground track
Ground track

The orbit data is extracted from the following two-line orbital elements,

1 36416U 10009D   15063.20121738  .00000032  00000-0  10604-3 0  9998
2 36416 063.4493 344.1100 0305033 359.2710 000.7843 13.69456344249883
Epoch (UTC): 04 March 2015 04:49:45
Eccentricity: 0.0305033
inclination: 63.4493°
perigee height: 776 km
apogee height: 1226 km
right ascension of ascending node: 344.1100°
argument of perigee: 359.2710°
revolutions per day: 13.69456344
mean anomaly at epoch: 0.7843°
orbit number at epoch: 24988

The dashed part of the orbit path shows where the satellite is in the earth's shadow,  

DLR